FENGYUN 1C DEB, 41832

Orbit data source: Space-Track

FENGYUN 1C DEB, 41832 is space debris in SSO originally from a launch on Mon, 10 May 1999 UTC launched from the Taiyaun Space Center, China (TSC). Fengyun 1C debris stems from the Chinese weather satellite Fengyun-1C, which was intentionally destroyed by a Chinese anti-satellite missile in 2007. This event dramatically increased the amount of space debris, with thousands of trackable fragments posing hazards to satellites and human spaceflight. The Fengyun 1C debris cloud has become a focal point in discussions about space sustainability and the need for international regulations to prevent the creation of new debris.

Loading next visibility...
Identifier
41832, 1999-025EYK
Orbit
SSO
Country
Flag of CNCN / PRC
Related business
Manufacturer
Unknown
Mission
Spacecraft
Bus & Motor
Unknown
Mass
Unknown
Launch date (UTC)
1999-05-10 (26 years ago)
Launch vehicle
Unknown
Launch site
Taiyaun Space Center, China (TSC)
Object type
Payload
Rocket body
Debris
Shape & HBR
Unknown shape, 0.1 m
Radar Cross Section
Small (<0.1 m²)

Expand to show TLE details & history
Last TLE update: 15 hours ago

TLE from 15 hours ago
0 FENGYUN 1C DEB
1 41832U 99025EYK 25295.63048341  .00004054  00000-0  17672-2 0  9993
2 41832  98.7331   0.0078 0053932  16.0667 344.2206 14.23723302466233
Epoch: 2025-10-22T15:07Z
TLE epoch observation values (Epoch: 2025-10-22T15:07:53.766Z)
Latitude
-0.0001°
Longitude
101.73246°
Altitude
778.395 km
Speed
7.484 km/s
True Right ascension
00h 00m 01s
True Declination
0° 00' 00"
Sunlit
Object was in full shadow at epoch
Visualization orbit readout
Latitude
Unknown
Longitude
Unknown
Altitude
Unknown
Speed
Unknown
Apparent Right ascension
Unknown
Apparent Declination
Unknown
Sunlit
N/A
Visualization observer readout
Local Sidereal Time
01:31:51
Azimuth
Unknown
Elevation
Unknown
Doppler factor
Unknown
Orbital elements
Apogee altitude
848.71 km
Perigee altitude
771.176 km
Semi-major axis
7,188.08 km
Eccentricity
0.00539
Inclination
98.7331°
RAAN
0.0078°
Arg. of periapsis
16.0667°
True anomaly
344.05144°
Mean anomaly
344.2206°
Eccentric anomaly
344.13613°
Mean motion
3.56143 °/min
Orbital period
101.08 mins
BSTAR
0.0017672
Loading maneuver chart data...
Computing Atmospheric mass density...

Documentation

Showing up to 5 results
|